Location: San Vito
(41.8833°N, 12.9833°E)
Time: 21:05:18
(UTC+00:00)

Cosmos 1408 Rocket - Pass Details

Date: 17 November 2019
Orbit: 602 x 630 km, 82.6° (Epoch: 14 December)

Event Time Altitude Azimuth Distance (km) Brightness Sun altitude
Rises 04:46:55 0° 196° (SSW) 2,839 6.9 -13.6°
Reaches altitude 10° 04:49:08 10° 200° (SSW) 1,942 6.0 -13.2°
Maximum altitude 04:53:22 57° 280° (W) 712 3.5 -12.4°
Drops below altitude 10° 04:57:39 10° 360° (N) 1,967 6.0 -11.6°
Sets 04:59:55 0° 4° (N) 2,880 6.9 -11.2°
